| time (UTC) | temp F | wind direction | speed MPH | gust MPH | rain 1hr in | rain 24hr in | rain mn in | humidity % | barometer mb |
| 20260831145023 | 73 | 337 | 2.0 | 4.0 | 0.00 | 0.49 | 0.49 | 86 | 1018.0 |
| 20260831144517 | 74 | 19 | 1.0 | 3.0 | 0.00 | 0.49 | 0.49 | 86 | 1018.0 |
| 20260831144031 | 74 | 21 | 1.0 | 3.0 | 0.00 | 0.49 | 0.49 | 85 | 1018.0 |
| 20260831143525 | 74 | 21 | 0.0 | 3.0 | 0.00 | 0.49 | 0.49 | 84 | 1017.9 |
| 20260831143018 | 73 | 21 | 0.0 | 5.0 | 0.00 | 0.49 | 0.49 | 85 | 1017.9 |
| 20260831142516 | 72 | 21 | 2.0 | 6.0 | 0.01 | 0.49 | 0.49 | 84 | 1017.8 |
| 20260831142030 | 72 | 23 | 3.0 | 6.0 | 0.01 | 0.49 | 0.49 | 84 | 1017.9 |
| 20260831141524 | 71 | 298 | 0.0 | 4.0 | 0.01 | 0.49 | 0.49 | 86 | 1017.6 |
| 20260831141018 | 71 | 297 | 1.0 | 9.0 | 0.01 | 0.49 | 0.49 | 88 | 1017.7 |
| 20260831140532 | 71 | 296 | 3.0 | 9.0 | 0.01 | 0.49 | 0.49 | 88 | 1017.6 |
| 20260831140038 | 70 | 327 | 2.0 | 10.0 | 0.01 | 0.49 | 0.49 | 89 | 1017.6 |
| 20260831135517 | 70 | 280 | 3.0 | 10.0 | 0.01 | 0.49 | 0.49 | 90 | 1017.7 |
| 20260831135015 | 70 | 285 | 3.0 | 7.0 | 0.01 | 0.49 | 0.49 | 90 | 1017.7 |
| 20260831134530 | 70 | 284 | 2.0 | 10.0 | 0.01 | 0.49 | 0.49 | 90 | 1017.7 |
| 20260831134023 | 70 | 286 | 7.0 | 10.0 | 0.01 | 0.49 | 0.49 | 91 | 1017.8 |
| 20260831133517 | 70 | 274 | 4.0 | 10.0 | 0.01 | 0.49 | 0.49 | 90 | 1017.8 |
| 20260831133031 | 70 | 277 | 5.0 | 9.0 | 0.01 | 0.49 | 0.49 | 90 | 1017.8 |
| 20260831132525 | 70 | 277 | 5.0 | 8.0 | 0.00 | 0.48 | 0.48 | 90 | 1017.9 |
| 20260831132020 | 69 | 313 | 1.0 | 6.0 | 0.01 | 0.48 | 0.48 | 90 | 1017.8 |
| 20260831131513 | 69 | 342 | 2.0 | 11.0 | 0.01 | 0.48 | 0.48 | 91 | 1017.9 |
| 20260831131031 | 69 | 355 | 5.0 | 11.0 | 0.02 | 0.48 | 0.48 | 91 | 1018.0 |
| 20260831130525 | 69 | 333 | 2.0 | 5.0 | 0.11 | 0.48 | 0.48 | 91 | 1018.2 |
| 20260831130031 | 69 | 342 | 2.0 | 8.0 | 0.30 | 0.48 | 0.48 | 91 | 1018.3 |
| 20260831125531 | 69 | 291 | 3.0 | 7.0 | 0.43 | 0.48 | 0.48 | 91 | 1018.8 |
| 20260831125025 | 69 | 310 | 3.0 | 5.0 | 0.46 | 0.48 | 0.48 | 91 | 1018.7 |
| 20260831124519 | 69 | 354 | 2.0 | 8.0 | 0.46 | 0.48 | 0.48 | 91 | 1019.2 |
| 20260831124014 | 69 | 13 | 4.0 | 8.0 | 0.46 | 0.48 | 0.48 | 91 | 1018.4 |
| 20260831123528 | 69 | 25 | 4.0 | 9.0 | 0.46 | 0.48 | 0.48 | 91 | 1018.7 |
| 20260831123026 | 69 | 305 | 1.0 | 7.0 | 0.46 | 0.48 | 0.48 | 91 | 1018.6 |
| 20260831122520 | 69 | 335 | 3.0 | 11.0 | 0.46 | 0.48 | 0.48 | 90 | 1018.5 |
| 20260831122014 | 69 | 358 | 4.0 | 10.0 | 0.46 | 0.47 | 0.47 | 90 | 1018.5 |
| 20260831121528 | 69 | 355 | 4.0 | 10.0 | 0.47 | 0.47 | 0.47 | 90 | 1018.1 |
| 20260831121022 | 70 | 8 | 3.0 | 8.0 | 0.46 | 0.46 | 0.46 | 89 | 1018.2 |
| 20260831120516 | 70 | 311 | 1.0 | 5.0 | 0.34 | 0.34 | 0.35 | 88 | 1018.0 |
| 20260831120040 | 71 | 305 | 2.0 | 5.0 | 0.18 | 0.18 | 0.18 | 85 | 1018.2 |
| 20260831115524 | 72 | 308 | 2.0 | 7.0 | 0.05 | 0.05 | 0.05 | 82 | 1018.1 |
| 20260831115018 | 73 | 308 | 2.0 | 7.0 | 0.02 | 0.02 | 0.02 | 80 | 1017.6 |
| 20260831114532 | 73 | 293 | 3.0 | 16.0 | 0.02 | 0.02 | 0.02 | 78 | 1017.5 |
| 20260831114025 | 72 | 287 | 5.0 | 17.0 | 0.02 | 0.02 | 0.02 | 80 | 1017.5 |
| 20260831113520 | 72 | 261 | 8.0 | 17.0 | 0.02 | 0.02 | 0.02 | 82 | 1017.4 |
| 20260831113014 | 72 | 273 | 10.0 | 17.0 | 0.02 | 0.02 | 0.02 | 82 | 1017.0 |
| 20260831112528 | 72 | 264 | 10.0 | 17.0 | 0.02 | 0.02 | 0.02 | 83 | 1017.0 |
| 20260831112022 | 74 | 266 | 8.0 | 20.0 | 0.00 | 0.00 | 0.00 | 78 | 1016.9 |
| 20260831111015 | 75 | 248 | 13.0 | 25.0 | 0.00 | 0.00 | 0.00 | 69 | 1016.6 |
| 20260831110529 | 76 | 267 | 11.0 | 28.0 | 0.00 | 0.00 | 0.00 | 67 | 1016.7 |
| 20260831110034 | 78 | 240 | 12.0 | 28.0 | 0.00 | 0.00 | 0.00 | 63 | 1016.4 |
| 20260831105514 | 82 | 244 | 8.0 | 15.0 | 0.00 | 0.00 | 0.00 | 52 | 1016.4 |
| 20260831105028 | 82 | 329 | 4.0 | 6.0 | 0.00 | 0.00 | 0.00 | 52 | 1016.0 |
| 20260831104523 | 82 | 332 | 2.0 | 5.0 | 0.00 | 0.00 | 0.00 | 52 | 1015.5 |
| 20260831104022 | 82 | 359 | 1.0 | 4.0 | 0.00 | 0.00 | 0.00 | 52 | 1015.3 |
| 20260831103516 | 82 | 6 | 2.0 | 3.0 | 0.00 | 0.00 | 0.00 | 52 | 1015.1 |
| 20260831103029 | 81 | 6 | 1.0 | 3.0 | 0.00 | 0.00 | 0.00 | 52 | 1015.0 |
| 20260831102523 | 82 | 6 | 1.0 | 2.0 | 0.00 | 0.00 | 0.00 | 52 | 1015.0 |
| 20260831102017 | 82 | 6 | 1.0 | 3.0 | 0.00 | 0.00 | 0.00 | 52 | 1014.9 |
| 20260831101531 | 82 | 6 | 2.0 | 3.0 | 0.00 | 0.00 | 0.00 | 52 | 1014.9 |
| 20260831101025 | 82 | 6 | 0.0 | 2.0 | 0.00 | 0.00 | 0.00 | 52 | 1014.9 |
| 20260831100520 | 82 | 6 | 0.0 | 3.0 | 0.00 | 0.00 | 0.00 | 54 | 1014.9 |
| 20260831100030 | 81 | 6 | 1.0 | 3.0 | 0.00 | 0.00 | 0.00 | 55 | 1014.8 |
| 20260831095529 | 81 | 6 | 0.0 | 1.0 | 0.00 | 0.00 | 0.00 | 54 | 1014.9 |
| 20260831095023 | 81 | 6 | 0.0 | 1.0 | 0.00 | 0.00 | 0.00 | 54 | 1014.8 |
| 20260831094517 | 81 | 6 | 0.0 | 2.0 | 0.00 | 0.00 | 0.00 | 54 | 1014.8 |
| 20260831094031 | 81 | 6 | 0.0 | 2.0 | 0.00 | 0.00 | 0.00 | 56 | 1014.8 |
| 20260831093524 | 81 | 6 | 0.0 | 1.0 | 0.00 | 0.00 | 0.00 | 54 | 1014.7 |
| 20260831093019 | 82 | 6 | 0.0 | 1.0 | 0.00 | 0.00 | 0.00 | 54 | 1014.5 |
| 20260831092517 | 81 | 6 | 0.0 | 1.0 | 0.00 | 0.00 | 0.00 | 54 | 1014.6 |
| 20260831092032 | 82 | 6 | 0.0 | 1.0 | 0.00 | 0.00 | 0.00 | 54 | 1014.6 |
| 20260831091527 | 82 | 6 | 0.0 | 2.0 | 0.00 | 0.00 | 0.00 | 55 | 1014.6 |
| 20260831091022 | 82 | 6 | 1.0 | 3.0 | 0.00 | 0.00 | 0.00 | 54 | 1014.7 |
| 20260831090516 | 82 | 6 | 1.0 | 2.0 | 0.00 | 0.00 | 0.00 | 54 | 1014.9 |
| 20260831090045 | 82 | 6 | 1.0 | 2.0 | 0.00 | 0.00 | 0.00 | 54 | 1014.9 |
| 20260831085525 | 82 | 6 | 0.0 | 1.0 | 0.00 | 0.00 | 0.00 | 54 | 1014.9 |
| 20260831085019 | 82 | 6 | 0.0 | 2.0 | 0.00 | 0.00 | 0.00 | 55 | 1014.9 |
| 20260831084517 | 82 | 6 | 1.0 | 2.0 | 0.00 | 0.00 | 0.00 | 55 | 1015.0 |
| 20260831084032 | 82 | 6 | 1.0 | 2.0 | 0.00 | 0.00 | 0.00 | 55 | 1014.9 |
| 20260831083525 | 82 | 6 | 1.0 | 2.0 | 0.00 | 0.00 | 0.00 | 55 | 1015.1 |
| 20260831083019 | 82 | 6 | 1.0 | 2.0 | 0.00 | 0.00 | 0.00 | 55 | 1015.0 |
| 20260831082513 | 82 | 6 | 0.0 | 1.0 | 0.00 | 0.00 | 0.00 | 53 | 1014.9 |
| 20260831082027 | 82 | 6 | 0.0 | 1.0 | 0.00 | 0.00 | 0.00 | 55 | 1015.0 |
| 20260831081522 | 82 | 6 | 0.0 | 1.0 | 0.00 | 0.00 | 0.00 | 55 | 1015.0 |
| 20260831081019 | 82 | 6 | 0.0 | 2.0 | 0.00 | 0.00 | 0.00 | 53 | 1015.1 |
| 20260831080514 | 82 | 6 | 1.0 | 2.0 | 0.00 | 0.00 | 0.00 | 53 | 1015.0 |
| 20260831080042 | 83 | 6 | 0.0 | 1.0 | 0.00 | 0.00 | 0.00 | 52 | 1015.1 |
| 20260831075022 | 83 | 6 | 0.0 | 0.0 | 0.00 | 0.00 | 0.00 | 52 | 1015.1 |
| 20260831074517 | 83 | 6 | 0.0 | 0.0 | 0.00 | 0.00 | 0.00 | 52 | 1015.1 |
| 20260831074031 | 83 | 6 | 0.0 | 0.0 | 0.00 | 0.00 | 0.00 | 51 | 1015.2 |
| 20260831073526 | 83 | 6 | 0.0 | 0.0 | 0.00 | 0.00 | 0.00 | 50 | 1015.1 |
| 20260831073024 | 84 | 6 | 0.0 | 0.0 | 0.00 | 0.00 | 0.00 | 51 | 1015.1 |
| 20260831072520 | 84 | 6 | 0.0 | 1.0 | 0.00 | 0.00 | 0.00 | 50 | 1015.2 |
| 20260831072014 | 84 | 6 | 0.0 | 1.0 | 0.00 | 0.00 | 0.00 | 50 | 1015.2 |
| 20260831071529 | 84 | 6 | 0.0 | 1.0 | 0.00 | 0.00 | 0.00 | 49 | 1015.3 |
| 20260831071023 | 84 | 6 | 0.0 | 2.0 | 0.00 | 0.00 | 0.00 | 50 | 1015.1 |
| 20260831070518 | 84 | 6 | 0.0 | 2.0 | 0.00 | 0.00 | 0.00 | 49 | 1015.2 |
| 20260831070045 | 85 | 6 | 0.0 | 2.0 | 0.00 | 0.00 | 0.00 | 48 | 1015.2 |
| 20260831065529 | 85 | 6 | 0.0 | 2.0 | 0.00 | 0.00 | 0.00 | 48 | 1015.2 |
| 20260831065024 | 85 | 6 | 1.0 | 2.0 | 0.00 | 0.00 | 0.00 | 47 | 1015.4 |
| 20260831064518 | 86 | 6 | 1.0 | 4.0 | 0.00 | 0.00 | 0.00 | 46 | 1015.6 |
| 20260831064013 | 85 | 7 | 2.0 | 4.0 | 0.00 | 0.00 | 0.00 | 46 | 1015.4 |
| 20260831063527 | 85 | 8 | 1.0 | 3.0 | 0.00 | 0.00 | 0.00 | 48 | 1015.5 |
| 20260831063022 | 85 | 8 | 2.0 | 3.0 | 0.00 | 0.00 | 0.00 | 48 | 1015.5 |
| 20260831062516 | 85 | 9 | 1.0 | 2.0 | 0.00 | 0.00 | 0.00 | 48 | 1015.5 |
| 20260831062014 | 85 | 9 | 2.0 | 3.0 | 0.00 | 0.00 | 0.00 | 48 | 1015.5 |
| 20260831061529 | 85 | 9 | 0.0 | 3.0 | 0.00 | 0.00 | 0.00 | 48 | 1015.5 |
| 20260831061023 | 85 | 9 | 1.0 | 2.0 | 0.00 | 0.00 | 0.00 | 48 | 1015.5 |
| 20260831060517 | 85 | 9 | 1.0 | 2.0 | 0.00 | 0.00 | 0.00 | 47 | 1015.7 |
| 20260831060044 | 85 | 9 | 1.0 | 3.0 | 0.00 | 0.00 | 0.00 | 47 | 1015.5 |
| 20260831055524 | 86 | 9 | 1.0 | 5.0 | 0.00 | 0.00 | 0.00 | 46 | 1015.4 |
| 20260831055019 | 86 | 9 | 2.0 | 6.0 | 0.00 | 0.00 | 0.00 | 46 | 1015.3 |
| 20260831054514 | 86 | 11 | 3.0 | 6.0 | 0.00 | 0.00 | 0.00 | 45 | 1015.3 |
| 20260831054032 | 86 | 4 | 3.0 | 6.0 | 0.00 | 0.00 | 0.00 | 44 | 1015.4 |
| 20260831053526 | 86 | 6 | 2.0 | 6.0 | 0.00 | 0.00 | 0.00 | 44 | 1015.3 |
| 20260831053020 | 87 | 6 | 2.0 | 5.0 | 0.00 | 0.00 | 0.00 | 43 | 1015.2 |
| 20260831052515 | 87 | 33 | 0.0 | 4.0 | 0.00 | 0.00 | 0.00 | 43 | 1015.0 |
| 20260831052029 | 87 | 33 | 2.0 | 8.0 | 0.00 | 0.00 | 0.00 | 43 | 1015.0 |
| 20260831051523 | 88 | 33 | 3.0 | 8.0 | 0.00 | 0.00 | 0.00 | 42 | 1014.9 |
| 20260831051017 | 87 | 6 | 3.0 | 7.0 | 0.00 | 0.00 | 0.00 | 42 | 1014.9 |
| 20260831050516 | 88 | 6 | 4.0 | 7.0 | 0.00 | 0.00 | 0.00 | 41 | 1014.7 |
| 20260831050042 | 88 | 360 | 1.0 | 7.0 | 0.00 | 0.00 | 0.00 | 41 | 1014.8 |
| 20260831045522 | 88 | 2 | 3.0 | 6.0 | 0.00 | 0.00 | 0.00 | 41 | 1014.8 |
| 20260831045016 | 88 | 13 | 4.0 | 6.0 | 0.00 | 0.00 | 0.00 | 40 | 1014.8 |
| 20260831044530 | 89 | 329 | 2.0 | 17.0 | 0.00 | 0.00 | 0.00 | 43 | 1014.7 |
| 20260831044104 | 89 | 277 | 6.0 | 17.0 | 0.00 | 0.00 | 0.00 | 43 | 1014.6 |
| 20260831043514 | 89 | 271 | 8.0 | 16.0 | 0.00 | 0.00 | 0.00 | 43 | 1014.6 |
| 20260831043028 | 89 | 260 | 7.0 | 17.0 | 0.00 | 0.00 | 0.00 | 43 | 1014.5 |
| 20260831042523 | 89 | 260 | 9.0 | 17.0 | 0.00 | 0.00 | 0.00 | 43 | 1014.6 |
| 20260831042021 | 89 | 292 | 6.0 | 14.0 | 0.00 | 0.00 | 0.00 | 42 | 1014.7 |
| 20260831041516 | 89 | 267 | 7.0 | 14.0 | 0.00 | 0.00 | 0.00 | 42 | 1014.6 |
| 20260831041030 | 89 | 276 | 7.0 | 15.0 | 0.00 | 0.00 | 0.00 | 42 | 1014.6 |
| 20260831040524 | 89 | 265 | 9.0 | 19.0 | 0.00 | 0.00 | 0.00 | 41 | 1014.5 |
| 20260831040030 | 89 | 289 | 6.0 | 19.0 | 0.00 | 0.00 | 0.00 | 40 | 1014.5 |
| 20260831035530 | 89 | 271 | 6.0 | 14.0 | 0.00 | 0.00 | 0.00 | 39 | 1014.5 |
| 20260831035025 | 89 | 283 | 5.0 | 19.0 | 0.00 | 0.00 | 0.00 | 39 | 1014.4 |
| 20260831034520 | 90 | 252 | 10.0 | 19.0 | 0.00 | 0.00 | 0.00 | 40 | 1014.2 |
| 20260831034019 | 90 | 254 | 8.0 | 14.0 | 0.00 | 0.00 | 0.00 | 40 | 1014.3 |
| 20260831033513 | 90 | 274 | 8.0 | 16.0 | 0.00 | 0.00 | 0.00 | 40 | 1014.1 |
| 20260831033028 | 90 | 277 | 10.0 | 16.0 | 0.00 | 0.00 | 0.00 | 40 | 1014.0 |
| 20260831032522 | 90 | 279 | 8.0 | 17.0 | 0.00 | 0.00 | 0.00 | 40 | 1014.0 |
| 20260831032017 | 90 | 261 | 9.0 | 21.0 | 0.00 | 0.00 | 0.00 | 40 | 1013.9 |
| 20260831031512 | 90 | 267 | 12.0 | 22.0 | 0.00 | 0.00 | 0.00 | 39 | 1013.7 |
| 20260831031026 | 90 | 263 | 12.0 | 22.0 | 0.00 | 0.00 | 0.00 | 39 | 1013.5 |
| 20260831030525 | 91 | 229 | 11.0 | 17.0 | 0.00 | 0.00 | 0.00 | 39 | 1013.5 |
| 20260831030030 | 91 | 238 | 9.0 | 18.0 | 0.00 | 0.00 | 0.00 | 38 | 1013.4 |
| 20260831025531 | 91 | 271 | 6.0 | 19.0 | 0.00 | 0.00 | 0.00 | 38 | 1013.4 |
| 20260831025026 | 91 | 264 | 8.0 | 19.0 | 0.00 | 0.00 | 0.00 | 38 | 1013.5 |
| 20260831024520 | 92 | 258 | 8.0 | 18.0 | 0.00 | 0.00 | 0.00 | 37 | 1013.4 |
| 20260831024015 | 92 | 288 | 7.0 | 12.0 | 0.00 | 0.00 | 0.00 | 36 | 1013.4 |
| 20260831023529 | 92 | 266 | 7.0 | 13.0 | 0.00 | 0.00 | 0.00 | 36 | 1013.0 |
| 20260831023024 | 93 | 283 | 6.0 | 10.0 | 0.00 | 0.00 | 0.00 | 35 | 1013.1 |
| 20260831022522 | 94 | 277 | 4.0 | 10.0 | 0.00 | 0.00 | 0.00 | 35 | 1013.0 |
| 20260831022017 | 94 | 287 | 4.0 | 7.0 | 0.00 | 0.00 | 0.00 | 34 | 1012.8 |
| 20260831021512 | 94 | 287 | 3.0 | 7.0 | 0.00 | 0.00 | 0.00 | 34 | 1012.8 |
| 20260831021026 | 94 | 289 | 2.0 | 8.0 | 0.00 | 0.00 | 0.00 | 34 | 1012.6 |
| 20260831020518 | 94 | 289 | 2.0 | 7.0 | 0.00 | 0.00 | 0.00 | 34 | 1012.6 |
| 20260831020044 | 94 | 304 | 3.0 | 5.0 | 0.00 | 0.00 | 0.00 | 33 | 1012.5 |
| 20260831015524 | 95 | 308 | 2.0 | 4.0 | 0.00 | 0.00 | 0.00 | 33 | 1012.4 |
| 20260831015023 | 95 | 312 | 2.0 | 5.0 | 0.00 | 0.00 | 0.00 | 32 | 1012.4 |
| 20260831014517 | 95 | 331 | 2.0 | 4.0 | 0.00 | 0.00 | 0.00 | 32 | 1012.3 |
| 20260831014031 | 95 | 331 | 3.0 | 5.0 | 0.00 | 0.00 | 0.00 | 32 | 1012.4 |
| 20260831013526 | 95 | 332 | 2.0 | 5.0 | 0.00 | 0.00 | 0.00 | 32 | 1012.3 |
| 20260831013021 | 95 | 333 | 2.0 | 4.0 | 0.00 | 0.00 | 0.00 | 32 | 1012.3 |
| 20260831012514 | 95 | 337 | 1.0 | 3.0 | 0.00 | 0.00 | 0.00 | 32 | 1012.3 |
| 20260831012028 | 95 | 340 | 1.0 | 3.0 | 0.00 | 0.00 | 0.00 | 32 | 1012.3 |
| 20260831011523 | 95 | 340 | 1.0 | 3.0 | 0.00 | 0.00 | 0.00 | 31 | 1012.3 |
| 20260831011022 | 96 | 340 | 1.0 | 3.0 | 0.00 | 0.00 | 0.00 | 32 | 1012.1 |
| 20260831010517 | 96 | 340 | 1.0 | 4.0 | 0.00 | 0.00 | 0.00 | 32 | 1012.3 |
| 20260831010026 | 96 | 331 | 2.0 | 5.0 | 0.00 | 0.00 | 0.00 | 31 | 1012.2 |
| 20260831005525 | 96 | 356 | 1.0 | 3.0 | 0.00 | 0.00 | 0.00 | 31 | 1012.1 |
| 20260831005020 | 96 | 356 | 1.0 | 7.0 | 0.00 | 0.00 | 0.00 | 30 | 1012.2 |
| 20260831004515 | 96 | 356 | 2.0 | 8.0 | 0.00 | 0.00 | 0.00 | 30 | 1012.2 |
| 20260831004030 | 97 | 346 | 2.0 | 8.0 | 0.00 | 0.00 | 0.00 | 30 | 1012.1 |
| 20260831003529 | 97 | 359 | 2.0 | 6.0 | 0.00 | 0.00 | 0.00 | 30 | 1012.0 |
| 20260831003023 | 97 | 344 | 3.0 | 6.0 | 0.00 | 0.00 | 0.00 | 30 | 1012.1 |
| 20260831002517 | 97 | 309 | 2.0 | 6.0 | 0.00 | 0.00 | 0.00 | 30 | 1012.2 |
| 20260831002031 | 97 | 352 | 2.0 | 7.0 | 0.00 | 0.00 | 0.00 | 30 | 1012.3 |
| 20260831001526 | 97 | 19 | 3.0 | 5.0 | 0.00 | 0.00 | 0.00 | 30 | 1012.3 |
| 20260831001020 | 97 | 344 | 3.0 | 5.0 | 0.00 | 0.00 | 0.00 | 30 | 1012.3 |
| 20260831000516 | 98 | 356 | 2.0 | 6.0 | 0.00 | 0.00 | 0.00 | 30 | 1012.1 |
| 20260831000027 | 97 | 351 | 2.0 | 8.0 | 0.00 | 0.00 | 0.00 | 30 | 1012.3 |
| 20260830235527 | 97 | 360 | 3.0 | 8.0 | 0.00 | 0.00 | 0.00 | 30 | 1012.3 |
| 20260830235023 | 97 | 360 | 3.0 | 5.0 | 0.00 | 0.00 | 0.00 | 29 | 1012.3 |
| 20260830233529 | 97 | 312 | 2.0 | 4.0 | 0.00 | 0.00 | 0.00 | 29 | 1012.1 |
| 20260830233025 | 97 | 309 | 1.0 | 5.0 | 0.00 | 0.00 | 0.00 | 31 | 1012.3 |
| 20260830232521 | 98 | 308 | 2.0 | 6.0 | 0.00 | 0.00 | 0.00 | 29 | 1012.4 |
| 20260830232016 | 98 | 336 | 2.0 | 7.0 | 0.00 | 0.00 | 0.00 | 29 | 1012.4 |
| 20260830231516 | 98 | 307 | 1.0 | 4.0 | 0.00 | 0.00 | 0.00 | 30 | 1012.5 |
| 20260830231032 | 99 | 307 | 2.0 | 4.0 | 0.00 | 0.00 | 0.00 | 29 | 1012.6 |
| 20260830230529 | 99 | 294 | 2.0 | 5.0 | 0.00 | 0.00 | 0.00 | 29 | 1012.7 |
| 20260830230036 | 98 | 294 | 3.0 | 7.0 | 0.00 | 0.00 | 0.00 | 30 | 1012.8 |
| 20260830225518 | 99 | 295 | 2.0 | 7.0 | 0.00 | 0.00 | 0.00 | 29 | 1012.8 |
| 20260830225013 | 99 | 316 | 2.0 | 10.0 | 0.00 | 0.00 | 0.00 | 29 | 1012.8 |
| 20260830224529 | 99 | 301 | 4.0 | 7.0 | 0.00 | 0.00 | 0.00 | 29 | 1012.9 |
| 20260830224025 | 99 | 2 | 2.0 | 4.0 | 0.00 | 0.00 | 0.00 | 30 | 1012.9 |
| 20260830223525 | 99 | 6 | 2.0 | 5.0 | 0.00 | 0.00 | 0.00 | 29 | 1013.2 |
| 20260830223021 | 100 | 6 | 3.0 | 9.0 | 0.00 | 0.00 | 0.00 | 29 | 1013.1 |
| 20260830222516 | 101 | 352 | 3.0 | 9.0 | 0.00 | 0.00 | 0.00 | 28 | 1013.3 |
| 20260830222032 | 100 | 296 | 3.0 | 9.0 | 0.00 | 0.00 | 0.00 | 29 | 1013.5 |
| 20260830221529 | 100 | 231 | 4.0 | 9.0 | 0.00 | 0.00 | 0.00 | 29 | 1013.6 |
| 20260830221026 | 101 | 286 | 4.0 | 10.0 | 0.00 | 0.00 | 0.00 | 28 | 1013.6 |
| 20260830220522 | 101 | 289 | 5.0 | 10.0 | 0.00 | 0.00 | 0.00 | 28 | 1013.7 |
| 20260830220034 | 100 | 325 | 3.0 | 9.0 | 0.00 | 0.00 | 0.00 | 29 | 1013.7 |
| 20260830215515 | 100 | 295 | 3.0 | 14.0 | 0.00 | 0.00 | 0.00 | 29 | 1013.9 |
| 20260830215032 | 100 | 299 | 3.0 | 14.0 | 0.00 | 0.00 | 0.00 | 29 | 1013.8 |
| 20260830214528 | 99 | 19 | 2.0 | 7.0 | 0.00 | 0.00 | 0.00 | 29 | 1013.9 |
| 20260830212026 | 97 | 23 | 1.0 | 5.0 | 0.00 | 0.00 | 0.00 | 31 | 1014.3 |
| 20260830211521 | 98 | 23 | 2.0 | 9.0 | 0.00 | 0.00 | 0.00 | 31 | 1014.3 |
| 20260830211017 | 100 | 23 | 6.0 | 9.0 | 0.00 | 0.00 | 0.00 | 29 | 1014.4 |
| 20260830210517 | 98 | 352 | 3.0 | 8.0 | 0.00 | 0.00 | 0.00 | 31 | 1014.7 |
| 20260830210045 | 99 | 358 | 2.0 | 7.0 | 0.00 | 0.00 | 0.00 | 29 | 1014.8 |
| 20260830205526 | 99 | 75 | 2.0 | 7.0 | 0.00 | 0.00 | 0.00 | 31 | 1014.8 |
| 20260830205022 | 98 | 69 | 3.0 | 7.0 | 0.00 | 0.00 | 0.00 | 31 | 1014.9 |
| 20260830204519 | 99 | 27 | 3.0 | 6.0 | 0.00 | 0.00 | 0.00 | 31 | 1015.0 |
| 20260830204014 | 98 | 36 | 3.0 | 5.0 | 0.00 | 0.00 | 0.00 | 31 | 1015.2 |
| 20260830203530 | 97 | 61 | 4.0 | 9.0 | 0.00 | 0.00 | 0.00 | 32 | 1015.2 |
| 20260830203026 | 99 | 38 | 3.0 | 9.0 | 0.00 | 0.00 | 0.00 | 31 | 1015.3 |
| 20260830202526 | 100 | 290 | 2.0 | 8.0 | 0.00 | 0.00 | 0.00 | 30 | 1015.2 |
| 20260830202021 | 100 | 249 | 4.0 | 8.0 | 0.00 | 0.00 | 0.00 | 30 | 1015.3 |
| 20260830201517 | 98 | 311 | 2.0 | 5.0 | 0.00 | 0.00 | 0.00 | 32 | 1015.6 |
| 20260830201013 | 97 | 81 | 2.0 | 10.0 | 0.00 | 0.00 | 0.00 | 32 | 1015.8 |
| 20260830200529 | 97 | 91 | 5.0 | 10.0 | 0.00 | 0.00 | 0.00 | 32 | 1015.8 |
| 20260830200037 | 97 | 30 | 4.0 | 10.0 | 0.00 | 0.00 | 0.00 | 32 | 1015.8 |
| 20260830195518 | 97 | 65 | 6.0 | 10.0 | 0.00 | 0.00 | 0.00 | 32 | 1015.7 |
| 20260830195018 | 96 | 105 | 2.0 | 11.0 | 0.00 | 0.00 | 0.00 | 33 | 1015.9 |
| 20260830194514 | 97 | 70 | 6.0 | 11.0 | 0.00 | 0.00 | 0.00 | 32 | 1015.9 |
| 20260830194029 | 97 | 92 | 2.0 | 9.0 | 0.00 | 0.00 | 0.00 | 33 | 1016.0 |
| 20260830193525 | 96 | 85 | 5.0 | 10.0 | 0.00 | 0.00 | 0.00 | 33 | 1016.0 |
| 20260830193021 | 96 | 77 | 4.0 | 10.0 | 0.00 | 0.00 | 0.00 | 33 | 1016.1 |
| 20260830192517 | 96 | 116 | 3.0 | 9.0 | 0.00 | 0.00 | 0.00 | 34 | 1016.3 |
| 20260830192013 | 96 | 151 | 3.0 | 10.0 | 0.00 | 0.00 | 0.00 | 34 | 1016.4 |
| 20260830191532 | 95 | 81 | 5.0 | 10.0 | 0.00 | 0.00 | 0.00 | 35 | 1016.4 |
| 20260830191028 | 95 | 98 | 5.0 | 10.0 | 0.00 | 0.00 | 0.00 | 35 | 1016.6 |
| 20260830190524 | 95 | 97 | 6.0 | 10.0 | 0.00 | 0.00 | 0.00 | 35 | 1016.7 |
| 20260830190031 | 94 | 99 | 6.0 | 11.0 | 0.00 | 0.00 | 0.00 | 36 | 1016.7 |
| 20260830185512 | 94 | 115 | 7.0 | 13.0 | 0.00 | 0.00 | 0.00 | 36 | 1016.8 |
| 20260830185029 | 94 | 58 | 6.0 | 13.0 | 0.00 | 0.00 | 0.00 | 36 | 1016.8 |
| 20260830184524 | 94 | 90 | 7.0 | 11.0 | 0.00 | 0.00 | 0.00 | 37 | 1016.9 |
| 20260830184024 | 94 | 80 | 5.0 | 10.0 | 0.00 | 0.00 | 0.00 | 36 | 1017.0 |
| 20260830183520 | 94 | 80 | 5.0 | 13.0 | 0.00 | 0.00 | 0.00 | 37 | 1017.0 |
| 20260830183016 | 93 | 95 | 7.0 | 13.0 | 0.00 | 0.00 | 0.00 | 38 | 1017.1 |
| 20260830182532 | 93 | 104 | 7.0 | 10.0 | 0.00 | 0.00 | 0.00 | 37 | 1017.2 |
| 20260830182027 | 94 | 87 | 5.0 | 10.0 | 0.00 | 0.00 | 0.00 | 37 | 1017.3 |
| 20260830181523 | 93 | 92 | 3.0 | 10.0 | 0.00 | 0.00 | 0.00 | 37 | 1017.3 |
| 20260830181018 | 93 | 104 | 6.0 | 10.0 | 0.00 | 0.00 | 0.00 | 37 | 1017.5 |
| 20260830180518 | 93 | 88 | 3.0 | 11.0 | 0.00 | 0.00 | 0.00 | 38 | 1017.5 |
| 20260830180046 | 92 | 79 | 6.0 | 11.0 | 0.00 | 0.00 | 0.00 | 37 | 1017.5 |
| 20260830175527 | 93 | 79 | 4.0 | 11.0 | 0.00 | 0.00 | 0.00 | 38 | 1017.6 |
| 20260830175024 | 91 | 60 | 5.0 | 11.0 | 0.00 | 0.00 | 0.00 | 40 | 1017.6 |
| 20260830174520 | 91 | 84 | 4.0 | 10.0 | 0.00 | 0.00 | 0.00 | 39 | 1017.7 |
| 20260830174016 | 90 | 65 | 5.0 | 10.0 | 0.00 | 0.00 | 0.00 | 40 | 1017.7 |
| 20260830173532 | 91 | 86 | 1.0 | 9.0 | 0.00 | 0.00 | 0.00 | 39 | 1017.7 |
| 20260830173028 | 91 | 97 | 5.0 | 9.0 | 0.00 | 0.00 | 0.00 | 40 | 1017.7 |
| 20260830172527 | 90 | 96 | 5.0 | 10.0 | 0.00 | 0.00 | 0.00 | 41 | 1017.8 |
| 20260830172024 | 90 | 77 | 6.0 | 10.0 | 0.00 | 0.00 | 0.00 | 40 | 1017.8 |
| 20260830171520 | 89 | 89 | 5.0 | 9.0 | 0.00 | 0.00 | 0.00 | 41 | 1017.7 |
| 20260830171016 | 89 | 107 | 6.0 | 9.0 | 0.00 | 0.00 | 0.00 | 41 | 1017.9 |
| 20260830170513 | 90 | 97 | 4.0 | 9.0 | 0.00 | 0.00 | 0.00 | 41 | 1017.7 |
| 20260830170040 | 89 | 80 | 6.0 | 10.0 | 0.00 | 0.00 | 0.00 | 41 | 1017.9 |
| 20260830165521 | 89 | 79 | 6.0 | 11.0 | 0.00 | 0.00 | 0.00 | 41 | 1017.9 |
| 20260830165021 | 89 | 72 | 7.0 | 11.0 | 0.00 | 0.00 | 0.00 | 41 | 1017.9 |
| 20260830164517 | 89 | 92 | 4.0 | 9.0 | 0.00 | 0.00 | 0.00 | 41 | 1017.8 |
| 20260830164013 | 89 | 99 | 6.0 | 9.0 | 0.00 | 0.00 | 0.00 | 41 | 1017.9 |
| 20260830163529 | 90 | 177 | 3.0 | 11.0 | 0.00 | 0.00 | 0.00 | 41 | 1017.8 |
| 20260830163025 | 89 | 102 | 4.0 | 11.0 | 0.00 | 0.00 | 0.00 | 42 | 1017.9 |
| 20260830162520 | 89 | 118 | 5.0 | 10.0 | 0.00 | 0.00 | 0.00 | 42 | 1017.9 |
| 20260830162016 | 89 | 218 | 4.0 | 10.0 | 0.00 | 0.00 | 0.00 | 42 | 1018.0 |
| 20260830161516 | 89 | 194 | 3.0 | 9.0 | 0.00 | 0.00 | 0.00 | 43 | 1018.0 |
| 20260830161032 | 88 | 207 | 3.0 | 8.0 | 0.00 | 0.00 | 0.00 | 43 | 1018.0 |
| 20260830160528 | 88 | 125 | 4.0 | 9.0 | 0.00 | 0.00 | 0.00 | 43 | 1018.1 |
| 20260830160035 | 88 | 215 | 3.0 | 9.0 | 0.00 | 0.00 | 0.00 | 44 | 1018.0 |
| 20260830155517 | 87 | 213 | 4.0 | 9.0 | 0.00 | 0.00 | 0.00 | 44 | 1018.1 |
| 20260830155012 | 87 | 119 | 4.0 | 10.0 | 0.00 | 0.00 | 0.00 | 44 | 1018.1 |
| 20260830154528 | 87 | 106 | 4.0 | 10.0 | 0.00 | 0.00 | 0.00 | 45 | 1018.0 |
| 20260830154028 | 87 | 114 | 5.0 | 10.0 | 0.00 | 0.00 | 0.00 | 44 | 1017.9 |
| 20260830153524 | 87 | 131 | 4.0 | 10.0 | 0.00 | 0.00 | 0.00 | 45 | 1017.9 |
| 20260830153020 | 87 | 131 | 4.0 | 8.0 | 0.00 | 0.00 | 0.00 | 44 | 1018.0 |
| 20260830152516 | 86 | 215 | 4.0 | 7.0 | 0.00 | 0.00 | 0.00 | 45 | 1018.1 |
| 20260830152031 | 86 | 159 | 2.0 | 8.0 | 0.00 | 0.00 | 0.00 | 46 | 1018.1 |
| 20260830151527 | 86 | 210 | 4.0 | 8.0 | 0.00 | 0.00 | 0.00 | 47 | 1018.0 |
| 20260830151024 | 85 | 204 | 2.0 | 4.0 | 0.00 | 0.00 | 0.00 | 49 | 1018.0 |
| 20260830150524 | 85 | 204 | 2.0 | 4.0 | 0.00 | 0.00 | 0.00 | 50 | 1018.0 |
| 20260830150032 | 84 | 204 | 2.0 | 4.0 | 0.00 | 0.00 | 0.00 | 51 | 1018.0 |
| 20260830145514 | 84 | 205 | 1.0 | 5.0 | 0.00 | 0.00 | 0.00 | 51 | 1018.2 |